This demonstration page uses our WeatherBlox Daily Observations layout. Learn more.

Left ArrowRight Arrow

39.92423, -83.80882

Hourly Observations for July 18, 2020

Temp ( °F °C ) Dew Point ( °F °C ) Humidity (%) Winds ( mph kmh ) Pressure ( in mb ) Visibility ( mi km ) Precip ( " mm )
12:56 am 00:56 Clear 68 20 66 18.9 93 93 E 3 6 30.13 1020 10 16 N/A
1:56 am 01:56 Clear 65 18.3 65 18.3 100 100 E 3 6 30.12 1020 10 16 N/A
2:56 am 02:56 Clear 64 17.8 64 17.8 100 100 N N/A 30.12 1020 10 16 N/A
3:56 am 03:56 Clear 63 17.2 63 17.2 100 100 N N/A 30.10 1019 10 16 N/A
4:56 am 04:56 Clear 64 17.8 64 17.8 100 100 N N/A 30.09 1019 10 16 N/A
5:56 am 05:56 Clear 64 17.8 64 17.8 100 100 N N/A 30.11 1020 9 14 N/A
6:56 am 06:56 Sunny with Mist and Fog 64 17.8 64 17.8 100 100 N N/A 30.13 1020 6 10 N/A
7:56 am 07:56 Sunny 72 22.2 72 22.2 100 100 SW 6 9 30.14 1021 8 13 N/A
8:56 am 08:56 Sunny 76 24.4 72 22.2 88 88 W 5 7 30.13 1020 10 16 N/A
9:56 am 09:56 Sunny 80 26.7 72 22.2 76 76 SW 6 9 30.11 1020 10 16 N/A
10:56 am 10:56 Sunny 83 28.3 73 22.8 72 72 VRB 5 7 30.09 1019 10 16 N/A
11:56 am 11:56 Sunny 85 29.4 73 22.8 68 68 S 8 13 30.09 1019 10 16 N/A
12:56 pm 12:56 Partly Cloudy 87 30.6 73 22.8 63 63 SSW 8 13 30.10 1019 10 16 N/A
1:56 pm 13:56 Partly Cloudy 88 31.1 72 22.2 59 59 VRB 3 6 30.09 1019 10 16 N/A
2:56 pm 14:56 Mostly Cloudy 90 32.2 74 23.3 59 59 SSW 9 15 30.06 1018 10 16 N/A
3:56 pm 15:56 Mostly Sunny 89 31.7 73 22.8 59 59 S 5 7 30.04 1017 10 16 N/A
4:56 pm 16:56 Cloudy 88 31.1 73 22.8 61 61 SSW 6 9 30.03 1017 10 16 N/A
5:56 pm 17:56 Partly Cloudy 91 32.8 70 21.1 50 50 W 14 22 30.00 1016 10 16 N/A
6:56 pm 18:56 Sunny 89 31.7 71 21.7 55 55 WSW 10 17 29.98 1015 10 16 N/A
7:56 pm 19:56 Sunny 86 30 71 21.7 61 61 W 8 13 29.98 1015 10 16 N/A
8:56 pm 20:56 Sunny 83 28.3 71 21.7 67 67 W 6 9 30.00 1016 10 16 N/A
9:56 pm 21:56 Clear 79 26.1 72 22.2 79 79 SW 5 7 30.01 1016 10 16 N/A
10:56 pm 22:56 Clear 78 25.6 72 22.2 82 82 SW 5 7 30.02 1017 10 16 N/A
11:56 pm 23:56 Clear 78 25.6 73 22.8 85 85 SW 5 7 30.02 1017 10 16 N/A

Powered by AerisWeather